Regional Weather Roundup
Issued by NWS Burlington, VT

Home | Current Version | Previous Version | Text Only | Print | Product List | Glossary On
Versions: 1 2 3 4 5 6 7 8 9 10 11 12 13 14 15 16 17 18 19 20 21 22 23 24 25 26 27 28 29 30 31 32 33 34 35 36 37 38 39 40 41 42 43 44 45 46 47 48 49 50
913
ASUS41 KBTV 300010
RWRBTV
VERMONT REGIONAL WEATHER ROUNDUP
NATIONAL WEATHER SERVICE BURLINGTON VT
800 PM EDT THU SEP 29 2016

NOTE: "FAIR" INDICATES FEW OR NO CLOUDS BELOW 12,000 FEET WITH NO
SIGNIFICANT WEATHER AND/OR OBSTRUCTIONS TO VISIBILITY.

* THESE REPORTS ARE NOT UNDER NWS QUALITY CONTROL AND/OR DO NOT
  REPORT WEATHER SUCH AS PRECIPITATION AND FOG.

VTZ001>019-300100-
_____VERMONT_____


CITY           SKY/WX    TMP DP  RH WIND       PRES   REMARKS
BURLINGTON     CLOUDY    63  51  65 E5        30.46R
6HR MIN TEMP:  63; 6HR MAX TEMP:  70;

MONTPELIER     PTCLDY    57  46  66 S7        30.52R
6HR MIN TEMP:  55; 6HR MAX TEMP:  65;

MORRISVILLE    PTCLDY    51  48  89 CALM      30.50R
6HR MIN TEMP:  51; 6HR MAX TEMP:  69;

ST. JOHNSBURY*   N/A     56  50  80 MISG      30.48R
6HR MIN TEMP:  55; 6HR MAX TEMP:  68;

LYNDONVILLE*   FAIR      55  44  66 N5        30.51R
6HR MIN TEMP:  55; 6HR MAX TEMP:  65;

MIDDLEBURY*    FAIR      57  48  72 CALM      30.46S
6HR MIN TEMP:  57; 6HR MAX TEMP:  69;

SPRINGFIELD    PTCLDY    51  45  79 CALM      30.50R
6HR MIN TEMP:  51; 6HR MAX TEMP:  65;

HIGHGATE*      FAIR      56  48  74 NE5       30.48S
6HR MIN TEMP:  56; 6HR MAX TEMP:  68;

NEWPORT*       FAIR      54  45  71 N7        30.50S
6HR MIN TEMP:  54; 6HR MAX TEMP:  63;

BENNINGTON     PTCLDY    58  43  57 E6        30.44R
6HR MIN TEMP:  58; 6HR MAX TEMP:  67;

SUTTON*          N/A     48 N/A N/A MISG        N/A

_____LAKE CHAMPLAIN_____


CITY           SKY/WX    TMP DP  RH WIND       PRES   REMARKS
BURTON ISLAND*   N/A     61  52  72 N1          N/A
COLCHESTER RF*   N/A     64  55  72 N9          N/A
DIAMOND ISL*     N/A     64  50  59 NW10        N/A

$$

NYZ007-026>031-035-052-083-087-300100-
_____NORTHERN NEW YORK_____


CITY           SKY/WX    TMP DP  RH WIND       PRES   REMARKS
PLATTSBURGH    CLOUDY    62  48  60 N12       30.47R
6HR MIN TEMP:  62; 6HR MAX TEMP:  66;

SARANAC LAKE   CLOUDY    55  46  71 NE8       30.46R
6HR MIN TEMP:  55; 6HR MAX TEMP:  65;

MASSENA        CLOUDY    60  46  59 NE10      30.49R
6HR MIN TEMP:  60; 6HR MAX TEMP:  65;

OGDENSBURG*    PTCLDY    61  48  63 E12       30.45S
6HR MIN TEMP:  60; 6HR MAX TEMP:  65;

POTSDAM*       CLOUDY    61  50  67 E9G17     30.46R
WATERTOWN      CLOUDY    61  50  67 NE10      30.39S
6HR MIN TEMP:  61; 6HR MAX TEMP:  68; 6HR PCP: TRACE;

FT DRUM        CLOUDY    60  51  71 NE12      30.40R
6HR MIN TEMP:  60; 6HR MAX TEMP:  68;

ALBANY         MOCLDY    59  45  59 E6        30.43R
6HR MIN TEMP:  59; 6HR MAX TEMP:  69;

GLENS FALLS    PTCLDY    59  46  62 NE5       30.44R
6HR MIN TEMP:  55; 6HR MAX TEMP:  70;


$$
NHZ002-005-011-300100-
_____NEW HAMPSHIRE_____


CITY           SKY/WX    TMP DP  RH WIND       PRES   REMARKS
LEBANON        CLOUDY    50  46  86 CALM      30.48S
6HR MIN TEMP:  49; 6HR MAX TEMP:  67;

KEENE          PTCLDY    50  46  86 CALM      30.49R
6HR MIN TEMP:  50; 6HR MAX TEMP:  64;

MT WASHINGTON  MOCLDY    45 -15   8 E14         N/A
6HR MIN TEMP:  43; 6HR MAX TEMP:  46;

PLYMOUTH       FAIR      48  46  92 CALM      30.50S
6HR MIN TEMP:  48; 6HR MAX TEMP:  65;

WHITEFIELD     CLOUDY    52  41  66 NE3       30.50R
6HR MIN TEMP:  51; 6HR MAX TEMP:  66;


$$

_____REGIONAL QUEBEC LOCATIONS_____


CITY           SKY/WX    TMP DP  RH WIND       PRES   REMARKS
MONTREAL       MOCLDY    57  45  62 NE14      30.51R
QUEBEC CITY    PTCLDY    46  41  81 N5        30.58S
SHERBROOKE     CLEAR     50  43  76 E6        30.51R

_____REGIONAL ONTARIO LOCATIONS_____


CITY           SKY/WX    TMP DP  RH WIND       PRES   REMARKS
OTTAWA         MOCLDY    57  43  58 NE15      30.49R

______KEY______
VSB  - VISIBILITY IN MILES
WCI  - WIND CHILL INDEX
HX   - HEAT INDEX
$$
NNNN




USA.gov is the U.S. government's official web portal to all federal, state and local government web resources and services.